[TLELIST] Archives

 

[list_settings.list_name] Current TLEs

June 9th 2011 PST

HST 1 20580U 90037B 11159.14414120 .00000933 00000-0 57954-4 0 7782 2 20580 028.4698 075.5244 0002924 024.1008 335.9773 15.01382238958296 ISS (ZARYA) 1 25544U 98067A 11160.44742115 .00024353 00000-0 16359-3 0 5021 2 25544 051.6430 200.2631 0000857 315.4074 044.7383 15.74480715123859 CXO 1 25867U 99040B 11161.04166667 -.00000443 00000-0 00000+0 0 6152 2 25867 069.3257 032.1265 8606870 276.6314 357.6378 00.37805092 7746 ____________________________________________________________________ These 2-Line ...Continue Reading

[list_settings.list_name] Current TLEs

June 8th 2011 PST

HST 1 20580U 90037B 11159.14414120 .00000933 00000-0 57954-4 0 7782 2 20580 028.4698 075.5244 0002924 024.1008 335.9773 15.01382238958296 ISS (ZARYA) 1 25544U 98067A 11159.40159722 .00024445 00000-0 16865-3 0 4956 2 25544 051.6457 205.6313 0001156 306.0667 242.3140 15.74434988719524 CXO 1 25867U 99040B 11161.29166667 -.00000472 00000-0 00000+0 0 6140 2 25867 069.3275 032.1088 8607584 276.6368 031.6891 00.37805914 7743 ____________________________________________________________________ These 2-Line ...Continue Reading

[list_settings.list_name] Current TLEs

June 7th 2011 PST

HST 1 20580U 90037B 11157.14990257 .00000902 00000-0 55628-4 0 7771 2 20580 028.4697 088.5490 0002988 003.7142 356.3507 15.01378988957999 ISS (ZARYA) 1 25544U 98067A 11158.37261318 .00025337 00000-0 17500-3 0 4886 2 25544 051.6450 210.9187 0001170 310.0317 162.2686 15.74386581719360 CXO 1 25867U 99040B 11158.37500000 -.00000265 00000-0 00000+0 0 6137 2 25867 069.2988 032.2906 8604845 276.6401 354.5661 00.37805609 7730 ____________________________________________________________________ These 2-Line ...Continue Reading

[list_settings.list_name] Current TLEs

June 6th 2011 PST

HST 1 20580U 90037B 11157.14990257 .00000902 00000-0 55628-4 0 7771 2 20580 028.4697 088.5490 0002988 003.7142 356.3507 15.01378988957999 ISS (ZARYA) 1 25544U 98067A 11157.49921296 .00022046 00000-0 15324-3 0 4837 2 25544 051.6467 215.4081 0001050 297.7871 260.9818 15.74332863719226 CXO 1 25867U 99040B 11158.37500000 -.00000265 00000-0 00000+0 0 6137 2 25867 069.2988 032.2906 8604845 276.6401 354.5661 00.37805609 7730 ____________________________________________________________________ These 2-Line ...Continue Reading

[list_settings.list_name] Current TLEs

June 5th 2011 PST

HST 1 20580U 90037B 11154.22501191 .00000918 00000-0 56791-4 0 7760 2 20580 028.4691 107.6555 0003127 330.3636 029.6819 15.01374647957557 ISS (ZARYA) 1 25544U 98067A 11156.48190972 .00016708 00000-0 11753-3 0 4777 2 25544 051.6451 220.6338 0001013 294.3176 254.9676 15.74276158719063 CXO 1 25867U 99040B 11155.75000000 -.00000311 00000-0 00000+0 0 6122 2 25867 069.2736 032.5354 8603250 276.6063 357.1595 00.37805320 7728 ____________________________________________________________________ These 2-Line ...Continue Reading

[list_settings.list_name] Current TLEs

June 4th 2011 PST

HST 1 20580U 90037B 11154.22501191 .00000918 00000-0 56791-4 0 7760 2 20580 028.4691 107.6555 0003127 330.3636 029.6819 15.01374647957557 ISS (ZARYA) 1 25544U 98067A 11155.38603943 .00018499 00000-0 12985-3 0 4702 2 25544 051.6466 226.2652 0001319 282.8514 171.5909 15.74236464718896 CXO 1 25867U 99040B 11155.75000000 -.00000311 00000-0 00000+0 0 6122 2 25867 069.2736 032.5354 8603250 276.6063 357.1595 00.37805320 7728 ____________________________________________________________________ These 2-Line ...Continue Reading

[list_settings.list_name] Current TLEs

June 3rd 2011 PST

HST 1 20580U 90037B 11154.22501191 .00000918 00000-0 56791-4 0 7760 2 20580 028.4691 107.6555 0003127 330.3636 029.6819 15.01374647957557 ISS (ZARYA) 1 25544U 98067A 11154.36963098 .00032379 00000-0 22433-3 0 4633 2 25544 051.6426 231.4798 0001301 266.4613 183.9191 15.74171783718735 CXO 1 25867U 99040B 11155.75000000 -.00000311 00000-0 00000+0 0 6122 2 25867 069.2736 032.5354 8603250 276.6063 357.1595 00.37805320 7728 ____________________________________________________________________ These 2-Line ...Continue Reading

[list_settings.list_name] Current TLEs

June 2nd 2011 PST

HST 1 20580U 90037B 11153.22788893 .00000872 00000-0 53324-4 0 7752 2 20580 028.4690 114.1708 0003121 319.1299 040.9114 15.01372893957402 ISS (ZARYA) 1 25544U 98067A 11153.46542938 .00027139 00000-0 17281-3 0 4597 2 25544 051.6472 236.1315 0005334 000.2604 359.8924 15.75687183122753 CXO 1 25867U 99040B 11153.12500000 -.00000362 00000-0 00000+0 0 6111 2 25867 069.2611 032.7483 8599384 276.5938 359.7506 00.37799731 7714 ____________________________________________________________________ These 2-Line ...Continue Reading

[list_settings.list_name] Current TLEs

June 1st 2011 PST

HST 1 20580U 90037B 11152.23076219 .00000817 00000-0 49136-4 0 7748 2 20580 028.4692 120.6850 0003093 308.8152 051.2073 15.01371121957250 ISS (ZARYA) 1 25544U 98067A 11152.39526740 -.00001699 00000-0 -66982-5 0 4523 2 25544 051.6480 241.6405 0005421 356.5556 049.1353 15.75602648718426 CXO 1 25867U 99040B 11153.12500000 -.00000362 00000-0 00000+0 0 6111 2 25867 069.2611 032.7483 8599384 276.5938 359.7506 00.37799731 7714 ____________________________________________________________________ These 2-Line ...Continue Reading

[list_settings.list_name] Current TLEs

May 31st 2011 PST

HST 1 20580U 90037B 11151.16716261 .00000940 00000-0 58458-4 0 7730 2 20580 028.4690 127.6249 0003108 295.1545 064.8771 15.01370135957099 ISS (ZARYA) 1 25544U 98067A 11151.38748039 -.00017961 00000-0 -11138-3 0 4450 2 25544 051.6501 246.8303 0004793 357.6206 087.8829 15.75546741718269 CXO 1 25867U 99040B 11153.12500000 -.00000362 00000-0 00000+0 0 6111 2 25867 069.2611 032.7483 8599384 276.5938 359.7506 00.37799731 7714 ____________________________________________________________________ These 2-Line ...Continue Reading
  • This mailing list is a public mailing list - anyone may join or leave, at any time.
  • This mailing list is announce-only.

International Space Station (ISS) / Hubble Space Telescope (HST) / Chandra X-Ray Observatory Orbital Data via EMAIL

Privacy Policy:

Private list